User: anonymous   Login
Location: Unspecified
(50.1700°N, 6.8600°E)
Time: 00:34:34
(UTC+00:00)
Language:

Lacrosse 5 - Orbit

View from above orbital plane
View from above orbital plane
View from above satellite
View from above satellite

Ground track
Ground track

The orbit data is extracted from the following two-line orbital elements,

1 28646U 05016A   19300.73384052 0.00000000  00000-0  00000-0 0    06
2 28646  57.0151 147.9793 0005967 125.4634 234.5365 14.51896301    05
Epoch (UTC): 27 October 2019 17:36:43
Eccentricity: 0.0005967
inclination: 57.0151°
perigee height: 715 km
apogee height: 724 km
right ascension of ascending node: 147.9793°
argument of perigee: 125.4634°
revolutions per day: 14.51896301
mean anomaly at epoch: 234.5365°
orbit number at epoch: 0

The dashed part of the orbit path shows where the satellite is in the earth's shadow,  

DLR